User: anonymous
Location: Vancouver
(49.2500°N, 123.1330°W)
Time: 22:31:03
(UTC-07:00)
Language:

Tiros 2 - Orbit

View from above orbital plane
View from above orbital plane
View from above satellite
View from above satellite

Ground track
Ground track

The orbit data is extracted from the following two-line orbital elements,

1 00063U 60016A   14107.97751899  .00302225  45195-4  87682-3 0  3484
2 00063 048.5005 088.7408 0002012 152.2111 207.8959 15.92353433911500
Epoch (UTC): 17 April 2014 23:27:37
Eccentricity: 0.0002012
inclination: 48.5005°
perigee height: 294 km
apogee height: 297 km
right ascension of ascending node: 88.7408°
argument of perigee: 152.2111°
revolutions per day: 15.92353433
mean anomaly at epoch: 207.8959°
orbit number at epoch: 91150

The dashed part of the orbit path shows where the satellite is in the earth's shadow,  

DLR